Regional Weather Roundup
Issued by NWS

Home | Current Version | Previous Version | Graphics & Text | Print | Product List | Glossary On
Versions: 1 2 3 4 5 6 7 8 9 10 11 12 13 14 15 16 17 18 19 20 21 22 23 24 25 26 27 28 29 30 31 32 33 34 35 36 37 38 39 40 41 42 43 44 45 46 47 48 49 50
000
ASUS45 KABQ 272210
RWRNM
WEATHER ROUNDUP FOR NEW MEXICO
NATIONAL WEATHER SERVICE ALBUQUERQUE NM
300 PM MST TUE JAN 27 2015

NOTE: "FAIR" MEANS FEW OR NO CLOUDS BELOW 12,000 FEET AGL WITH NO
       SIGNIFICANT WEATHER OR OBSTRUCTIONS TO VISION.

      THIS PRODUCT IS RELEASED AS TWO VERSIONS.  ONE VERSION NEAR
      THE TOP OF THE HOUR CONTAINING PRELIMINARY DATA FROM ALBUQUERQUE
      AND OTHER STATIONS.  A FINAL VERSION WITH ADDITIONAL DATA IS
      ISSUED ABOUT 10 MINUTES AFTER THE HOUR.

NMZ501-503-504-510>518-272300-
NORTHWEST PLATEAU/NORTHCENTRAL MOUNTAINS

CITY           SKY/WX    TMP DP  RH WIND       PRES   REMARKS
FARMINGTON     SUNNY     59  32  36 VRB3      30.26F
LOS ALAMOS     SUNNY     54  24  31 SE5       30.30F
SANTA FE       SUNNY     58  26  29 SW14      30.26F
TAOS           SUNNY     55  27  33 CALM      30.28S
ANGEL FIRE     FAIR      48  22  36 SW13      30.31S

$$
NMZ402-403-502-505>509-272300-
WESTCENTRAL MOUNTAINS/SOUTHWEST MOUNTAINS

CITY           SKY/WX    TMP DP  RH WIND       PRES   REMARKS
GALLUP         PTSUNNY   57  33  40 W9        30.30F
GRANTS         CLOUDY    58  34  40 NE6       30.31F
SILVER CITY    MOSUNNY   64  37  36 W7        30.27F

$$
NMZ407-409-411-412-272300-
SOUTHERN DESERTS

CITY           SKY/WX    TMP DP  RH WIND       PRES   REMARKS
LORDSBURG      FAIR      66  37  34 N3        30.23S
DEMING         SUNNY     67  39  35 MISG      30.23F
LAS CRUCES     SUNNY     65  37  35 S5        30.24F
HOLLOMAN AFB   SUNNY     66  38  35 CALM      30.22F
ALAMOGORDO     SUNNY     64  32  29 CALM      30.24F
T OR C         SUNNY     65  36  34 CALM      30.22F

$$
NMZ519>523-272300-
CENTRAL VALLEYS/CENTRAL HIGHLANDS

CITY           SKY/WX    TMP DP  RH WIND       PRES   REMARKS
ALBUQUERQUE    MOSUNNY   58  25  28 CALM      30.26F
DOUBLE EAGLE   MOSUNNY   57  28  33 VRB6      30.28F
MORIARTY ARPT  FAIR      62  29  29 W9        30.26F
CLINES CORNERS SUNNY     57  31  37 W16G26    30.25F
BELEN          FAIR      60  29  30 W3        30.26F
SOCORRO        FAIR      62  30  30 CALM      30.25F

$$
NMZ524>526-539-540-272300-
SOUTHCENTRAL MOUNTAINS

CITY           SKY/WX    TMP DP  RH WIND       PRES   REMARKS
RUIDOSO        SUNNY     59  32  36 N6        30.31S

$$
NMZ527>531-272300-
NORTHEAST HIGHLANDS/NORTHEAST PLAINS

CITY           SKY/WX    TMP DP  RH WIND       PRES   REMARKS
LAS VEGAS      SUNNY     63  26  24 S16       30.19F
RATON          SUNNY     58  27  30 SW10      30.17F
CLAYTON        MOSUNNY   67  31  26 S17       30.12F

$$
NMZ532>537-272300-
EASTCENTRAL PLAINS

CITY           SKY/WX    TMP DP  RH WIND       PRES   REMARKS
TUCUMCARI      SUNNY     70  29  21 S14       30.12F
CANNON AFB     SUNNY     68  30  24 SW12      30.17F
CLOVIS AIRPORT SUNNY     70  30  23 SW12G17   30.17S

$$
NMZ028-029-538-272300-
SOUTHEAST PLAINS

CITY           SKY/WX    TMP DP  RH WIND       PRES   REMARKS
ROSWELL        SUNNY     70  29  21 S6        30.17F
ARTESIA        SUNNY     68  32  26 CALM      30.19S
CARLSBAD       SUNNY     73  33  23 SE7       30.16F
HOBBS          SUNNY     72  25  17 CALM      30.19F


$$


USA.gov is the U.S. government's official web portal to all federal, state and local government web resources and services.